Location: Newark
(50.4348°N, 30.5552°E)
Time: 03:26:08
(UTC+00:00)

Altair - Pass Details

Date: 29 January 2020
Orbit: 1502 x 1682 km, 47.2° (Epoch: 18 February)

Event Time Altitude Azimuth Distance (km) Brightness Sun altitude
Rises 10:19:42 0° 282° (WNW) 4,932 10.1 21.5°
Reaches altitude 10° 10:22:55 10° 279° (W) 3,948 9.7 21.5°
Maximum altitude 10:32:48 59° 204° (SSW) 1,891 9.0 21.4°
Drops below altitude 10° 10:42:32 10° 128° (SE) 3,888 10.1 21.2°
Sets 10:45:41 0° 125° (SE) 4,853 10.5 21.1°
